#timestamp,LO_Frequency,Hit,StdDev 
1693202415.1,286047000.2,N
1693202416.0,286047000.2,N
1693202435.8,286047001.1,N
1693202455.6,286047000.5,N
1693202475.5,286047002.1,N
1693202495.3,286047001.8,N
1693202515.1,286047004.0,N
1693202535.9,286047001.5,N
1693202555.7,286047001.8,N
1693202575.5,286047002.0,N
1693202595.4,286047003.9,N
1693202615.2,286047004.4,N
1693202635.0,286047004.0,N
1693202635.9,286047004.0,N
1693202655.8,286047005.3,N
1693202675.6,286047003.3,N
1693202695.4,286047020.9,Y
1693202715.3,286047012.3,P
1693202735.1,286047007.0,N
1693202755.8,286047003.2,N
1693202775.7,286047001.5,N
1693202795.5,286047002.6,N
1693202815.3,286047000.7,N
1693202835.2,286046996.5,N
1693202855.0,286046998.4,N
1693202855.9,286046998.4,N
1693202875.7,286046998.4,N
1693202895.6,286046999.0,N
1693202915.4,286046998.5,N
1693202935.2,286046999.4,N
1693202955.1,286046997.2,N
1693202956.0,286046997.2,N
1693202975.8,286046997.6,N
1693202995.6,286046997.7,N
1693203015.5,286046999.6,N
1693203035.3,286046997.0,N
1693203055.1,286046997.1,N
1693203075.9,286046999.4,N
1693203095.7,286047001.1,N
1693203115.5,286046999.4,N
1693203135.4,286046999.0,N
1693203155.2,286046999.6,N
1693203175.0,286046998.3,N
1693203175.9,286046998.3,N
1693203195.8,286046996.7,N
1693203215.6,286046997.3,N
1693203235.4,286046998.8,N
1693203255.3,286046996.5,N
1693203275.1,286046998.8,N
1693203295.8,286046998.8,N
1693203315.7,286046999.0,N
1693203335.5,286046999.0,N
1693203355.3,286046996.5,Y
1693203375.2,286047000.8,P
1693203395.0,286047000.9,N
1693203395.9,286047000.9,N
1693203415.7,286047007.1,Y
1693203435.6,286047008.2,P
1693203455.4,286047009.0,N
1693203475.2,286047008.8,N
1693203495.1,286047007.1,N
1693203496.0,286047007.1,N
1693203515.8,286047009.1,Y
1693203535.7,286046998.3,P
1693203555.5,286047009.5,N
1693203575.3,286047004.2,N
1693203595.2,286047000.0,N
1693203615.9,286047000.8,N
1693203635.7,286046997.2,N
1693203655.6,286046999.1,N
1693203675.4,286046996.7,N
1693203695.2,286046998.0,N
1693203715.0,286046997.9,N
1693203716.0,286046997.9,N
1693203735.8,286046997.7,N
1693203755.6,286046998.0,N
1693203775.5,286046997.4,N
1693203795.3,286046996.7,N
1693203815.1,286046994.9,N
1693203835.9,286046994.9,N
1693203855.7,286046997.5,N
1693203875.5,286046997.4,N
1693203895.3,286046996.9,N
1693203915.2,286046997.2,N
1693203935.0,286046995.3,N
1693203935.9,286046995.3,N
1693203955.8,286046995.0,N
1693203975.6,286046996.9,N
1693203995.4,286046999.5,N
1693204015.3,286046997.0,N
1693204035.1,286046996.8,N
1693204036.0,286046996.8,N
1693204055.8,286046998.2,N
1693204075.7,286046996.9,N
1693204095.5,286046997.6,N
1693204115.3,286046998.0,N
1693204135.2,286046998.8,N
1693204155.9,286046999.6,N
1693204175.7,286046999.4,N
1693204195.6,286046998.8,N
1693204215.4,286046999.0,N
1693204235.2,286047001.1,N
1693204255.1,286046998.1,N
1693204256.0,286046998.1,N
1693204275.8,286046999.3,N
1693204295.6,286046998.5,N
1693204315.5,286047002.3,N
1693204335.3,286047002.7,N
1693204355.1,286046999.9,N
1693204375.9,286046999.8,N
1693204395.7,286047002.8,N
1693204415.5,286046999.9,N
1693204435.4,286047000.8,N
1693204455.2,286046999.7,N
1693204475.0,286047000.2,N
1693204475.9,286047000.2,N
1693204495.8,286047000.1,N
1693204515.6,286047000.3,N
1693204535.4,286047002.8,N
1693204555.3,286047003.2,N
1693204575.1,286047004.0,N
1693204576.0,286047004.0,N
1693204595.8,286047004.1,N
1693204615.7,286047003.5,N
1693204635.5,286047005.5,N
1693204655.3,286047005.9,N
1693204675.2,286047009.2,Y
1693204695.9,286047003.5,P
1693204715.7,286047001.3,N
1693204735.6,286047003.9,P
1693204755.4,286047001.7,N
1693204775.2,286047001.9,N
1693204795.1,286047003.2,N
1693204796.0,286047003.2,Y
1693204815.8,286046999.3,P
1693204835.6,286047000.8,N
1693204855.5,286046999.9,N
1693204875.3,286047000.2,N
1693204895.1,286047004.2,Y
1693204915.9,286047010.0,P
1693204935.7,286047007.0,N
1693204955.5,286047005.8,N
1693204975.4,286047000.2,N
1693204995.2,286046998.7,N
1693205015.0,286046996.7,N
1693205015.9,286046996.7,N
1693205035.8,286046999.6,N
1693205055.6,286046996.8,N
1693205075.4,286046996.9,N
1693205095.3,286046996.7,N
1693205115.1,286046997.2,N
1693205135.8,286046995.6,N
1693205155.7,286046998.0,N
1693205175.5,286046997.3,N
1693205195.3,286046997.7,N
1693205215.2,286046997.4,N
1693205235.0,286046997.8,N
1693205235.9,286046997.8,N
1693205255.7,286046997.5,N
1693205275.6,286046998.0,N
1693205295.4,286046997.6,N
1693205315.2,286046997.5,N
1693205335.1,286046997.3,N
1693205336.0,286046997.3,N
1693205355.8,286046999.2,N
1693205375.6,286046997.0,N
1693205395.5,286047006.8,N
1693205415.3,286047003.2,N
1693205435.1,286047001.9,N
1693205455.9,286046998.1,N
1693205475.7,286046996.9,N
1693205495.6,286047000.6,N
1693205515.4,286046995.6,N
1693205535.2,286046997.5,N
1693205555.1,286046996.8,N
1693205556.0,286046996.8,N
1693205575.8,286046999.1,N
1693205595.6,286046993.4,N
1693205615.5,286046995.5,N
1693205635.3,286046997.8,N
1693205655.1,286046997.2,N
1693205675.9,286046996.9,N
1693205695.7,286046996.6,N
1693205715.5,286046999.5,N
1693205735.4,286047002.0,N
1693205755.2,286046999.8,N
1693205775.0,286047015.3,Y
1693205775.9,286047015.3,P
1693205795.8,286047008.2,N
1693205815.6,286047005.2,N
1693205835.4,286047003.0,N
1693205855.3,286047004.2,N
1693205875.1,286047004.0,N
1693205876.0,286047004.0,N
1693205895.8,286047002.1,N
1693205915.7,286047002.1,N
1693205935.5,286047001.6,N
1693205955.3,286047002.7,N
1693205975.2,286047002.2,N
1693205995.9,286046999.9,N
